Weather History for Belize, Belize

Change the Weather History Date:

Friday, January 24, 2014

  Actual Average Record
Temperature  
Mean Temperature 72 °F -  
Max Temperature 74 °F - 87 °F (2000)
Min Temperature 70 °F - 62 °F (2001)
Cooling Degree Days 7    
Growing Degree Days 22 (Base 50)    
Moisture  
Dew Point 71 °F    
Average Humidity 95    
Maximum Humidity 100    
Minimum Humidity 89    
Precipitation  
Precipitation 0.71 in 0.11 in - ()
Sea Level Pressure  
Sea Level Pressure 30.12 in    
Wind  
Wind Speed 6 mph ()    
Max Wind Speed 12 mph    
Max Gust Speed -    
Visibility 4.9 miles    
Events Rain    
Averages and records for this station are not official NWS values.
T = Trace of Precipitation, MM = Missing Value Source: Averaged Metar Reports

Daily Weather History Graph

Daily Weather History Graph

Search for Another Location

Airport:

Trip Planner

Search our weather history database for the weather conditions in past years. The results will help you decide how hot, cold, wet, or windy it might be!

Date:

Astronomy

Jan. 24, 2014 Rise Set
Actual Time 6:26 AM CST 5:44 PM CST
Civil Twilight 6:03 AM CST 6:07 PM CST
Nautical Twilight 5:37 AM CST 6:33 PM CST
Astronomical Twilight 5:11 AM CST 6:59 PM CST
Moon 12:06 AM CST (1/24) 11:53 AM CST (1/24)
Length of Visible Light 12h 03m
Length of Day
11h 17m
Last Quarter, 44% of the Moon is Illuminated
Jan 24
Last Quarter
Jan 30
New
Feb 6
First Quarter
Feb 14
Full
Feb 22
Last Quarter

Hourly Weather History & Observations

Time (CST) Temp. Dew Point Humidity Pressure Visibility Wind Dir Wind Speed Gust Speed Precip Events Conditions
12:00 AM 73 °F 71 °F 92% 30.11 in 12 mi North 4.6 mph - -   Partly Cloudy
3:00 AM 71 °F 71 °F 98% 30.08 in 2 mi North 5.8 mph - - Rain Light Rain
5:00 AM 71.6 °F 71.6 °F 100% 30.09 in 6.2 mi NNW 5.8 mph - N/A   Mostly Cloudy
6:00 AM 72 °F 71 °F 95% 30.12 in 4 mi North 5.8 mph - - Rain Light Rain Showers
6:00 AM 71.6 °F 71.6 °F 100% 30.09 in 4.3 mi North 5.8 mph - N/A Rain Light Rain Showers
7:00 AM 71.6 °F 71.6 °F 100% 30.12 in 3.1 mi NNW 5.8 mph - N/A Rain Light Rain
7:20 AM 71.6 °F 71.6 °F 100% 30.12 in 1.9 mi North 4.6 mph - N/A Rain Rain
8:00 AM 71.6 °F 71.6 °F 100% 30.15 in 4.3 mi NNW 5.8 mph - N/A Rain Light Rain
9:00 AM 75 °F 72 °F 89% 30.18 in 12 mi NNW 8.1 mph - - Rain Light Rain
9:00 AM 75.2 °F 73.4 °F 94% 30.15 in 6.2 mi NNW 8.1 mph - N/A   Mostly Cloudy
10:00 AM 73.4 °F 71.6 °F 94% 30.18 in 6.2 mi NNW 6.9 mph - N/A   Scattered Clouds
10:20 AM 73.4 °F 71.6 °F 94% 30.18 in 1.9 mi NNW 5.8 mph - N/A Rain Rain Showers
10:35 AM 73.4 °F 71.6 °F 94% 30.15 in 0.5 mi NNW 6.9 mph - N/A Rain Rain Showers
11:00 AM 73.4 °F 71.6 °F 94% 30.17 in 0.6 mi NNW 8.1 mph - N/A Rain Heavy Rain Showers
11:30 AM 73.4 °F 71.6 °F 94% 30.16 in 6.2 mi NNW 5.8 mph - N/A Rain Light Rain Showers
11:35 AM 73.4 °F 71.6 °F 94% 30.15 in 1.9 mi NNW 5.8 mph - N/A Rain Rain Showers
12:00 PM 72 °F 71 °F 97% 30.14 in 7 mi NW 6.9 mph - - Rain Light Rain Showers
12:00 PM 71.6 °F 71.6 °F 100% 30.14 in 6.2 mi NW 6.9 mph - N/A Rain Light Rain Showers
1:00 PM 71.6 °F 69.8 °F 94% 3.01 in 4.3 mi NNW 5.8 mph - N/A Rain Light Rain Showers
1:26 PM 71.6 °F 69.8 °F 94% 3.01 in 2.5 mi NNW 5.8 mph - N/A Rain Light Rain Showers
2:00 PM 71.6 °F 69.8 °F 94% 30.08 in 2.5 mi NNW 5.8 mph - N/A Rain Rain Showers
2:37 PM 71.6 °F 69.8 °F 94% 3.00 in 4.3 mi North 10.4 mph - N/A Rain Light Rain Showers
3:00 PM 73 °F 71 °F 92% 30.07 in 5 mi North 9.2 mph - - Rain Light Rain Showers
3:00 PM 73.4 °F 71.6 °F 94% 30.07 in 5.0 mi North 9.2 mph - N/A Rain Light Rain Showers
3:15 PM 73.4 °F 71.6 °F 94% 30.07 in 3.1 mi NNE 8.1 mph - N/A Rain Light Rain
3:31 PM 73.4 °F 71.6 °F 94% 30.06 in 4.3 mi ENE 11.5 mph - N/A Rain Light Rain
4:00 PM 73.4 °F 71.6 °F 94% 30.06 in 6.2 mi North 9.2 mph - N/A   Mostly Cloudy
5:00 PM 71.6 °F 69.8 °F 94% 30.08 in 6.2 mi North 10.4 mph - N/A   Mostly Cloudy
6:00 PM 72 °F 70 °F 93% 30.10 in 11 mi North 9.2 mph - -   Partly Cloudy
6:00 PM 71.6 °F 69.8 °F 94% 30.08 in 6.2 mi North 9.2 mph - N/A   Mostly Cloudy